TIANLIAN 2-03

Last updated on Sat Aug 22 2026 00:03:01 GMT+0000 (Coordinated Universal Time)

1 53100U 22078A 26233.27051227 .00000069 00000+0 00000+0 0 9993 2 53100 0.8320 77.7581 0000919 108.2511 251.5603 1.00272287 15193
UTC large
Height (km)
Speed (km/s)
/
Latitude / Longitude
Inclination (degrees)
Orbital Period (minutes)
Azimuth
Elevation
Range (km)
Doppler Factor

Next 0 passes for location: London (51.5072 / 0.1276)

No passes found over London.
TIANLIAN 2-03